Погода в Шицюаньхэ

Китай     32°12′47″N   80°02′28″E
темп.,
°C
ветер,
м/с
пор.,
м/с
влажн.,
%
обл.,
%
осадки,
мм/ч
давл.,
гПа
погр.,
м
27 сентября, пн
пн2723:00+8зюз012619 0.0 101328
02:00+6ю01270 0.0 101513
05:00+4ююз01320 0.0 101611
08:00+2ю11370 0.0 101810
11:00+7ююв12270 0.0 1018877
14:00+11юз23120 0.0 10132489
17:00+13зюз3380 0.0 10083032
20:00+12зюз3390 0.0 10071367
28 сентября, вт
вт2823:00+8юз22170 0.0 101226
02:00+6юз22200 0.0 101317
05:00+5ююз323361 0.0 101419
08:00+4ююз334982 0.0 101523
11:00+7юз33400 0.0 1015706
14:00+11зюз45210 0.0 10122144
17:00+12зюз45200 0.0 10082088
20:00+11юз45174 0.0 10071328
29 сентября, ср
ср2923:00+8юз33272 0.0 101360
02:00+6ююз32367 0.0 101526
05:00+4юз224481 0.0 101620
08:00+3ююз225131 0.0 101816
11:00+7юз11395 0.0 1017574
14:00+11зюз232538 0.0 10132526
17:00+13з431911 0.0 10082664
20:00+11зюз33190 0.0 1009760
30 сентября, чт
чт3023:00+9юз32250 0.0 101337
02:00+7юз32310 0.0 101420
05:00+5ююз22390 0.0 101417
08:00+3ююз22460 0.0 101714
11:00+8юз22340 0.0 1016522
14:00+12зюз23220 0.0 10112118
17:00+14з43170 0.0 10072387
20:00+12юз33160 0.0 1007626
1 октября, пт
пт123:00+9юз22215 0.0 101227
02:00+7ююз32290 0.0 101220
05:00+5ююз32340 0.0 101318
08:00+4ююз32420 0.0 101615
11:00+8юз22380 0.0 1015539
14:00+12зюз33251 0.0 10091949
17:00+14зюз44212 0.0 10052137
20:00+11юз33200 0.0 1006720